Location: Tizneros
(40.9912°N, 4.0559°W)
Time: 23:42:17
(UTC+00:00)

Daily predictions for brighter satellites

Satellite Brightness Start Highest point End
(mag) Time Altitude Azimuth Time Altitude Azimuth Time Altitude Azimuth
COSMOS 2406 3.3 17:07:11 10° S 17:12:52 67° ESE 17:18:34 10° NNE
CZ-2C R/B 2.9 17:14:58 10° SSE 17:19:53 88° ENE 17:24:41 10° NNW
Cosmos 1782 3.3 17:17:23 10° SSE 17:21:05 38° E 17:24:48 10° NNE
USA 267 3.5 17:17:56 10° NE 17:24:27 70° NW 17:30:55 10° WSW
Cosmos 1092 Rocket 4.1 17:18:17 10° N 17:24:35 61° E 17:30:48 10° SSE
Cosmos 1763 Rocket 4.0 17:20:59 10° SSW 17:25:58 61° WNW 17:31:03 10° NNE
GPS 2-04 Rocket1 4.0 17:22:56 10° WSW 17:26:46 38° S 17:30:35 10° ESE
CZ-2D R/B 4.2 17:24:45 10° SE 17:28:00 27° ENE 17:31:14 10° NNE
CZ-2C R/B 3.7 17:24:41 10° NE 17:28:49 24° E 17:32:54 10° SSE
Cosmos 1500 3.8 17:26:34 10° NNE 17:29:59 33° ENE 17:33:22 10° SE
CZ-4C R/B 3.5 17:24:10 10° NNW 17:30:51 38° NE 17:38:29 10° ESE
H-2A R/B 2.6 17:26:39 10° SE 17:31:15 33° ENE 17:35:44 10° N
CZ-4B R/B 4.0 17:28:20 10° ESE 17:32:48 27° ENE 17:37:14 10° N
Cosmos 841 Rocket 3.5 17:28:14 10° S 17:33:21 67° ESE 17:38:28 10° NNE
Cosmos 1340 Rocket 3.8 17:30:44 10° NNW 17:34:43 54° W 17:38:41 10° S
SMAP 3.0 17:36:04 10° SSE 17:40:43 79° ENE 17:45:22 10° N
Cosmos 2360 4.2 17:35:01 10° NNW 17:40:47 84° ENE 17:46:30 10° SSE
Cosmos 1937 Rocket 3.5 17:36:22 10° NNW 17:41:43 76° ENE 17:47:00 10° SSE
USA 229 DEB 4.1 17:34:44 10° NW 17:42:12 84° WSW 17:50:04 10° SSE
USA 229 4.1 17:34:50 10° NW 17:42:18 85° WSW 17:50:09 10° SSE
Lacrosse 5 rocket 3.1 17:41:01 10° NNW 17:43:26 15° NNE 17:44:49 13° NE
Cosmos 921 Rocket 4.4 17:40:50 10° SE 17:43:43 18° E 17:45:22 15° ENE
AQUARIUS 4.1 17:40:29 10° SSE 17:44:56 74° ENE 17:49:26 10° N
COSMOS 2455 2.9 17:39:31 10° SSW 17:45:32 89° WNW 17:51:37 10° NNE
COSMO-SKYMED 1 3.4 17:42:19 10° NE 17:46:08 29° E 17:49:55 10° SSE
Cosmos 1627 Rocket 4.4 17:40:37 10° N 17:46:48 77° E 17:52:53 10° SSE
Cosmos 2279 Rocket 4.2 17:42:13 10° SSE 17:48:08 49° E 17:54:05 10° NNE
Cosmos 372 Rocket 4.1 17:44:26 10° N 17:49:36 56° ENE 17:54:45 10° SE
Meteor 2-21 4.4 17:43:36 10° N 17:49:40 71° E 17:55:41 10° SSE
ISS -3.0 17:48:03 10° NW 17:51:12 35° NNE 17:53:03 20° E
Cosmos 1633 Rocket 3.6 17:48:32 10° N 17:52:32 34° ENE 17:56:32 10° SE
Cosmos 44 Rocket 4.4 17:50:06 10° N 17:54:02 23° NE 17:56:04 18° E
NOAA 6 4.2 17:49:43 10° S 17:54:51 79° WSW 18:00:01 10° NNW
Meteor 1-26 Rocket 4.4 17:49:46 10° S 17:55:43 89° W 18:01:49 10° N
USA 234 3.3 17:49:49 10° ESE 17:56:16 65° NE 18:02:44 10° NW
SL-24 R/B - RUBIN 2 3.5 17:53:32 10° NNW 17:57:58 60° NE 18:02:13 10° SE
Cosmos 1151 Rocket 3.1 17:54:53 10° S 17:59:07 57° E 18:03:23 10° NNE
Cosmos 1666 3.0 17:55:46 10° N 17:59:17 40° ENE 18:02:47 10° SSE
PSLV R/B 3.5 17:56:21 10° SSE 18:00:01 76° ENE 18:03:45 10° N
Cosmos 1634 Rocket 4.2 18:00:08 10° SSW 18:06:27 76° W 18:12:49 10° N
Cosmos 1900 4.3 18:03:44 10° SSW 18:08:31 62° ESE 18:11:48 20° NE
X-37B 2.3 18:07:45 10° S 18:09:47 18° SE 18:10:00 17° SE
NOSS 2-2 (D) 4.5 18:04:36 10° NNW 18:10:08 80° NE 18:17:55 10° SE
Okean O Rocket 2.0 18:07:17 10° SE 18:11:27 42° ENE 18:15:40 10° N
Cosmos 2026 Rocket 4.3 18:07:19 10° NNW 18:13:23 69° W 18:19:23 10° S
Cosmos 2322 Rocket 3.5 18:10:06 10° N 18:13:54 20° NE 18:13:54 20° NE
Cosmos 1697 Rocket 3.8 18:09:38 10° NW 18:14:59 46° WSW 18:20:18 10° S
Landsat 5 3.6 18:16:56 27° NE 18:18:43 44° E 18:22:29 10° S
Cosmos 1812 3.0 18:15:32 10° SSW 18:19:21 69° W 18:23:12 10° N
Cosmos 1666 Rocket 3.5 18:14:55 10° N 18:19:23 85° E 18:23:46 10° S
Cosmos 1328 Rocket 3.5 18:15:24 10° S 18:19:48 69° E 18:24:02 11° NNE
Cosmos 1980 Rocket 2.2 18:14:18 10° NNW 18:19:59 85° WSW 18:25:35 10° SSE
SJ-11-01 4.3 18:16:40 10° SSE 18:21:18 57° ENE 18:25:58 10° N
APEX 3.8 18:18:22 10° S 18:22:07 34° ESE 18:22:10 34° ESE
Cosmos 1470 Rocket 3.9 18:18:26 10° N 18:22:42 42° ENE 18:26:56 10° SSE
MOS 1-B 4.4 18:17:21 10° SSE 18:23:07 84° WSW 18:28:57 10° NNW
Cosmos 2369 4.3 18:18:47 10° NNW 18:24:26 61° WSW 18:30:02 10° S
Meteor 1-5 Rocket 4.3 18:24:18 10° N 18:30:20 89° E 18:36:12 10° S
Cosmos 1570 Rocket 4.2 18:25:31 10° SSW 18:30:44 73° WNW 18:35:27 13° NNE
Cosmos 1814 Rocket 4.5 18:27:23 10° SSW 18:32:33 60° WNW 18:37:31 11° NNE
SL-16 R/B 2.7 18:27:51 10° N 18:33:01 35° ENE 18:33:21 35° ENE
Meteor 1-14 Rocket 4.4 18:27:13 10° NNW 18:33:05 78° W 18:39:01 10° S
Cosmos 2082 Rocket 3.1 18:27:39 10° SW 18:33:07 46° WNW 18:38:34 10° NNE
Meteor 2-8 Rocket 4.4 18:27:03 10° S 18:33:12 83° E 18:39:23 10° N
SKYMED 2 3.6 18:30:16 12° N 18:34:19 80° WNW 18:38:38 10° SSW
ATLAS CENTAUR R/B 4.0 18:27:15 10° W 18:34:51 29° NW 18:37:45 16° N
Cosmos 2298 Rocket 4.2 18:31:32 10° N 18:36:41 47° ENE 18:38:49 31° ESE
Cosmos 1655 Rocket 4.0 18:30:44 10° N 18:37:04 59° E 18:43:17 10° SSE
CZ-2C R/B 2.6 18:37:53 10° SW 18:41:29 27° SSE 18:42:01 26° SSE
DMSP B5D2-2 4.3 18:42:38 44° E 18:43:03 45° E 18:48:02 10° S
ARGOS 3.1 18:39:49 10° SSE 18:45:15 87° W 18:50:41 10° NNW
Cosmos 2278 3.9 18:42:26 10° NNW 18:48:07 71° WSW 18:53:45 10° SSE
Cosmos 1818 3.5 18:42:43 10° NNW 18:48:11 64° NE 18:49:43 45° ESE
deb Chang Zheng 4 4.1 18:47:56 10° S 18:52:10 58° WSW 18:56:26 10° NNW
GEOS 3 Rocket 4.3 18:54:52 36° NNE 18:54:52 36° NNE 18:58:46 10° NNW
Cosmos 836 Rocket 4.5 18:49:33 10° S 18:54:44 59° ESE 18:54:58 59° E
CZ-4C R/B 4.3 18:56:15 32° SSW 18:56:15 32° SSW 18:58:11 10° SSW
Meteor 1-27 Rocket 3.5 18:55:46 10° S 19:01:13 67° E 19:01:42 63° ENE
Cosmos 1515 Rocket 3.7 18:58:51 10° SSW 19:03:18 74° W 19:04:03 58° NNW
IRAS Rocket 4.3 19:04:56 54° SE 19:04:56 54° SE 19:09:43 10° S
SL-08 RB Rocket 3.8 18:59:45 10° S 19:04:23 77° WSW 19:09:01 10° NNW
CZ-2C R/B 3.7 19:04:24 10° N 19:09:15 41° WNW 19:14:03 10° SW
Cosmos 1867 3.7 19:03:58 10° SSW 19:08:42 57° SSE 19:08:42 57° SSE
H-2A R/B 4.0 19:06:11 10° SSW 19:10:38 29° W 19:15:02 10° NW
CZ-4B R/B 4.5 19:08:06 10° SSW 19:13:10 40° W 19:18:11 10° NNW
Cosmos 2150 Rocket 3.9 19:08:25 10° NNW 19:13:37 87° WSW 19:13:51 82° S
CZ-4C R/B 3.5 19:12:25 10° NW 19:19:52 61° WSW 19:28:18 10° SSE
USA 32 4.1 19:15:04 10° S 19:20:16 75° W 19:20:55 65° NNW
Cosmos 921 Rocket 4.4 19:17:51 10° SW 19:21:41 34° WNW 19:22:11 33° NW
Lacrosse 5 rocket 3.4 19:19:04 10° NW 19:20:27 21° NW 19:20:27 21° NW
ISS -0.9 19:24:57 10° WNW 19:26:04 18° W 19:26:04 18° W
Cosmos 1125 Rocket 3.8 19:23:22 10° NNW 19:27:56 62° WNW 19:27:56 62° WNW
Cosmos 44 Rocket 4.3 19:31:07 10° NW 19:34:51 43° WNW 19:34:51 43° WNW
Cosmos 2360 Rocket 4.2 19:32:43 10° NNW 19:33:59 17° N 19:33:59 17° N
Okean O Rocket 4.3 19:44:57 10° SW 19:47:58 18° W 19:51:01 10° NW
Cosmos 2322 Rocket 3.8 19:53:10 10° NNW 19:55:46 28° NW 19:55:46 28° NW
SL-16 R/B 3.9 20:12:00 10° NW 20:15:18 28° WNW 20:15:18 28° WNW
